Home   Weather   Mountain View   Past weeks

Flag for USA Past Weather in Mountain View, California, USA — Yesterday and Last 2 Weeks

Now
60 °F

Passing clouds.


Feels Like: 60 °F
Forecast: 57 / 65 °F
Wind: 12 mph from Southeast

Location: Moffett Field

Current Time: Dec 8, 2016 at 6:10:39 pm

Latest Report: Dec 8, 2016 at 4:56 pm


Visibility: 10 mi

Pressure: 30.14 "Hg

Humidity: 80%

Dew Point: 54 °F

Location of Mountain ViewLocation

Past Weather in Mountain View — Graph

°F

Mountain View Temperature Yesterday

Maximum temperature yesterday: 52 °F (at 6:56 pm)
Minimum temperature yesterday: 39 °F (at 3:56 am)
Average temperature yesterday: 47 °F

High & Low Weather Summary for the Past Weeks

 TemperatureHumidityPressure
High63 °F (Dec 3, 12:56 pm)96% (Nov 24, 7:56 am)30.39 "Hg (Nov 24, 7:56 am)
Low39 °F (Dec 7, 3:56 am)25% (Dec 2, 1:56 pm)29.85 "Hg (Nov 26, 3:56 am)
Average51 °F71%30.13 "Hg
* Reported Nov 23 4:56 pm — Dec 8 4:56 pm, Mountain View, Weather by CustomWeather, © 2016

Note: Actual official high and low records may vary slightly from our data, if they occured in-between our weather recording intervals... More about our weather records

Advertising

Mountain View Weather History for the Previous 24 Hours

Scroll right to see more
 ConditionsComfort  
Time TempWeatherWind HumidityBarometerVisibility
4:56 pm
Thu, Dec 8
60 °FPassing clouds.12 mph80%30.14 "Hg10 mi
3:56 pm63 °FPartly sunny.10 mph73%30.14 "Hg10 mi
2:56 pm63 °FPartly sunny.7 mph73%30.13 "Hg10 mi
1:56 pm63 °FMostly cloudy.10 mph70%30.13 "Hg10 mi
12:56 pm63 °FMostly cloudy.12 mph70%30.12 "Hg10 mi
11:56 am63 °FPartly sunny.13 mph68%30.12 "Hg10 mi
10:56 am61 °FScattered clouds.12 mph72%30.14 "Hg10 mi
9:56 am60 °FMore clouds than sun.12 mph78%30.14 "Hg10 mi
8:56 am55 °FOvercast.12 mph83%30.11 "Hg10 mi
7:56 am53 °FOvercast.9 mph86%30.09 "Hg10 mi
6:56 am52 °FLight rain. Overcast.12 mph89%30.08 "Hg10 mi
5:56 am52 °FLight rain. Overcast.12 mph86%30.06 "Hg9 mi
4:56 am51 °FLight rain. Overcast.13 mph86%30.04 "Hg8 mi
3:56 am50 °FOvercast.14 mph86%30.05 "Hg10 mi
2:56 am50 °FOvercast.14 mph83%30.06 "Hg10 mi
1:56 am50 °FLight rain. Overcast.12 mph80%30.06 "Hg9 mi
12:56 am50 °FOvercast.17 mph80%30.05 "Hg10 mi
11:56 pm
Wed, Dec 7
50 °FLight rain. Overcast.14 mph77%30.07 "Hg9 mi
10:56 pm50 °FOvercast.10 mph74%30.09 "Hg10 mi
9:56 pm50 °FOvercast.7 mph77%30.11 "Hg10 mi
8:56 pm51 °FOvercast.7 mph71%30.11 "Hg10 mi
7:56 pm52 °FOvercast.6 mph64%30.11 "Hg10 mi
6:56 pm52 °FOvercast.6 mph66%30.12 "Hg10 mi
Weather by CustomWeather, © 2016

See weather overviewHow to use our weather pages